Location: B?dimalle
(17.1788°N, 80.5377°E)
Time: 06:06:23
(UTC+00:00)

Vanguard 1 - Pass Details

Date: 18 February 2026
Orbit: 653 x 3818 km, 34.2° (Epoch: 14 March)

Event Time Altitude Azimuth Distance (km) Brightness Sun altitude
Rises 18:05:22 0° 293° (WNW) 7,732 14.8 -77.4°
Reaches altitude 10° 18:10:53 10° 288° (WNW) 6,857 14.4 -78.6°
Enters shadow 18:18:59 26° 275° (W) 5,651 13.8 -80.2°
